Location: Suburban Lights Observatory
(43.1572°N, 89.2764°W)
Time: 01:48:00
(UTC-05:00)

Daily predictions for brighter satellites

Satellite Brightness Start Highest point End
(mag) Time Altitude Azimuth Time Altitude Azimuth Time Altitude Azimuth
USA 234 3.8 00:15:12 50° WNW 00:15:12 50° WNW 00:20:04 10° NW
Cosmos 1943 Rocket 3.3 00:10:10 10° NNW 00:13:38 40° NNW 00:13:38 40° NNW
ADEOS Rocket 4.2 00:09:18 10° NNE 00:14:09 36° ENE 00:14:09 36° ENE
Mayak 1.5 00:13:48 10° NNE 00:14:37 15° NNE 00:14:37 15° NNE
Cosmos 1943 4.3 00:33:31 41° N 00:33:31 41° N 00:37:22 10° NNE
SeaSat 1 4.1 00:35:23 30° NNW 00:35:23 30° NNW 00:37:51 10° NNW
Cosmos 2369 Rocket 3.8 00:34:10 10° NW 00:37:01 27° WNW 00:37:01 27° WNW
Lacrosse 5 4.3 00:51:36 10° NW 00:52:35 16° NW 00:52:35 16° NW
CZ-4C R/B 4.0 01:11:58 24° NW 01:13:11 25° NNW 01:18:16 10° NNE
ATLAS 5 CENTAUR R/B 4.1 01:10:27 10° NW 01:12:44 23° WNW 01:12:44 23° WNW
Mayak 1.7 01:51:08 10° NW 01:51:15 10° NW 01:51:15 10° NW
ADEOS Rocket 4.1 01:54:53 10° N 02:01:06 37° WNW 02:01:06 37° WNW
COSMOS 2406 3.9 02:13:29 50° N 02:13:29 50° N 02:17:54 10° NNE
Cosmos 2034 Rocket 4.2 02:17:52 65° ENE 02:17:52 65° ENE 02:23:40 10° NNE
Cosmos 2278 4.5 02:12:53 10° NNW 02:18:21 46° ENE 02:18:44 45° ENE
Cosmos 1980 Rocket 4.2 02:21:01 10° N 02:25:31 24° NE 02:30:00 10° ESE
Cosmos 1697 Rocket 3.8 02:23:53 10° NNW 02:29:14 40° ENE 02:31:12 31° E
Cosmos 1607 4.4 02:29:40 51° ESE 02:29:40 51° ESE 02:35:35 10° NE
CZ-2D R/B 3.2 02:25:15 10° NNE 02:30:01 37° E 02:30:01 37° E
Lacrosse 4 Rocket 3.2 02:29:38 10° N 02:33:35 31° NE 02:33:35 31° NE
Cosmos 2082 Rocket 3.1 02:35:02 41° E 02:35:02 41° E 02:39:53 10° NE
Cosmos 1867 4.5 02:30:20 10° NNW 02:35:37 46° NE 02:37:35 32° E
SL-16 R/B 2.9 02:34:38 54° ESE 02:35:43 62° ENE 02:41:54 10° N
ARIANE 5 R/B 3.9 02:38:35 10° NE 02:43:12 31° E 02:43:38 30° ESE
Iridium 4 Rocket 4.4 02:47:03 35° ENE 02:47:03 35° ENE 02:50:23 10° NNE
Cosmos 1464 Rocket 4.3 02:47:04 53° WNW 02:47:04 53° WNW 02:52:41 10° N
SL-08 R/B 4.0 02:47:36 54° NNE 02:47:36 54° NNE 02:51:28 10° N
ADEOS II 4.5 02:58:14 10° NE 03:01:26 16° E 03:04:39 10° SE
Cosmos 1656 3.8 02:58:21 10° NNW 03:03:11 62° NW 03:03:11 62° NW
IRS-1D 3.7 03:00:31 10° NNE 03:05:38 64° ESE 03:05:48 64° ESE
Cosmos 2369 4.1 03:03:49 10° NNW 03:08:13 51° WNW 03:08:13 51° WNW
UNK 4.5 03:12:13 44° NNW 03:12:13 44° NNW 03:15:25 10° NNW
AQUA 4.0 03:06:05 10° N 03:10:13 65° N 03:10:13 65° N
Gbstr 26 Del rocket 4.5 03:08:52 47° W 03:11:12 69° NNW 03:18:06 10° NE
Nadezhda 4 Rocket 4.0 03:05:13 10° NNW 03:11:01 59° W 03:11:01 59° W
NPP 3.7 03:07:15 10° N 03:12:25 64° WNW 03:12:25 64° WNW
Resurs 1-4 Rocket 1.9 03:07:47 10° NNE 03:13:05 90° ESE 03:13:08 88° S
Cosmos 1833 Rocket 2.5 03:14:17 82° WSW 03:14:30 85° WNW 03:20:12 10° NNE
Okean 2 4.2 03:15:55 48° NNE 03:15:55 48° NNE 03:18:57 10° N
IRS-P3 4.2 03:12:19 10° N 03:17:32 63° WNW 03:17:32 63° WNW
Helios 1A Rocket 3.9 03:14:55 10° NNE 03:18:52 40° E 03:18:54 40° E
Cosmos 1634 Rocket 3.9 03:18:31 57° S 03:19:52 83° E 03:26:09 10° N
Lacrosse 5 rocket 1.9 03:21:36 57° NE 03:21:36 57° NE 03:24:55 10° NE
Cosmos 1606 Rocket 4.3 03:24:49 10° N 03:29:00 48° ENE 03:30:11 37° ESE
Cosmos 2360 4.4 03:23:45 10° NNW 03:29:26 68° ENE 03:35:06 10° SSE
H-2A R/B 3.6 03:26:26 10° N 03:29:28 35° NW 03:29:28 35° NW
Cosmos 332 Rocket 4.4 03:34:28 42° NW 03:34:28 42° NW 03:38:47 10° N
Cosmos 2279 Rocket 4.2 03:32:48 33° SSE 03:35:41 66° E 03:41:54 10° NNE
Cosmos 371 Rocket 3.8 03:36:06 44° WNW 03:36:06 44° WNW 03:40:38 10° N
Cosmos 1892 Rocket 4.4 03:40:00 34° SE 03:41:23 46° E 03:45:37 10° NNE
Cosmos 2026 Rocket 3.9 03:38:17 10° N 03:44:40 76° W 03:47:24 37° S
Cosmos 1066 Rocket 4.0 03:44:18 52° SSW 03:45:44 85° W 03:51:13 10° N
ERS-1 4.4 03:40:53 10° N 03:45:47 63° WNW 03:46:22 58° WSW
CBERS 1 LM4 rocket 4.5 03:44:29 10° NNE 03:49:41 89° ESE 03:51:22 46° SSW
Cosmos 909 Rocket 4.5 03:45:21 10° NW 03:50:47 39° WSW 03:50:47 39° WSW
ATLAS 3B R/B 3.9 03:47:02 16° SSE 03:51:51 35° ESE 03:58:03 10° NE
COSMOS 2487 2.7 03:52:33 62° N 03:52:33 62° N 03:55:35 10° NNE
Cosmos 1025 Rocket 3.5 03:53:05 42° WNW 03:53:05 42° WNW 03:56:48 10° N
Cosmos 2208 Rocket 3.9 03:51:46 50° SSW 03:53:11 85° WNW 03:58:30 10° NNE
Cosmos 1763 Rocket 4.3 03:53:31 25° SSE 03:56:18 48° ESE 04:01:24 10° NNE
Cosmos 1898 Rocket 3.4 03:57:35 10° NNW 04:02:49 86° WSW 04:08:03 10° SSE
Cosmos 1570 Rocket 4.2 04:08:08 40° WSW 04:09:41 55° WNW 04:14:55 10° NNE
UNKNOWN OBJECT B 2.7 04:05:53 10° N 04:09:45 68° WNW 04:10:18 58° SW
Cosmos 1980 Rocket 2.2 04:04:23 10° NNW 04:09:53 58° WSW 04:15:16 11° S
CZ-2D R/B 3.1 04:05:31 10° N 04:10:11 31° WNW 04:11:21 28° W
USA 215 3.5 04:04:03 10° NE 04:10:30 60° SE 04:14:17 26° SSW
Cosmos 1655 Rocket 4.0 04:04:29 10° NNW 04:10:50 72° W 04:16:05 16° S
Lacrosse 4 Rocket 3.3 04:08:22 10° NW 04:09:50 18° WNW 04:09:50 18° WNW
Okean O Rocket 4.4 04:10:26 10° ENE 04:12:29 13° E 04:14:33 10° ESE
Cosmos 1697 Rocket 3.4 04:08:07 10° NW 04:12:51 31° W 04:12:51 31° W
Cosmos 304 Rocket 4.1 04:13:46 39° WSW 04:15:05 51° WNW 04:19:49 10° N
Cosmos 1937 Rocket 3.4 04:11:03 10° NNW 04:16:18 90° ENE 04:21:27 10° SSE
Cosmos 2082 Rocket 3.2 04:16:53 25° W 04:18:48 31° NW 04:23:48 10° N
Cosmos 1867 4.5 04:14:19 10° NW 04:18:06 28° W 04:18:06 28° W
Cosmos 2266 Rocket 4.2 04:13:24 10° N 04:19:28 70° E 04:25:34 10° SSE
SL-16 R/B 3.7 04:19:43 23° W 04:19:44 23° W 04:24:33 10° NW
Cosmos 858 Rocket 4.3 04:14:39 10° NNW 04:19:52 74° WSW 04:25:01 10° SSE
SL-16 R/B 2.8 04:14:34 10° NNW 04:20:12 60° ENE 04:25:48 10° SE
Meteor 1-22 Rocket 4.3 04:15:10 10° NNW 04:21:07 65° W 04:26:15 13° S
ARIANE 5 R/B 3.3 04:17:34 10° N 04:22:18 35° WNW 04:23:59 28° WSW
Cosmos 468 Rocket 4.3 04:27:52 29° SW 04:30:23 54° WNW 04:35:37 10° NNE
Cosmos 990 Rocket 3.9 04:29:41 10° NNW 04:34:46 63° WSW 04:39:51 10° S
Cosmos 2150 Rocket 4.0 04:30:34 10° NNW 04:36:04 84° WSW 04:41:31 10° SSE
Cosmos 2322 Rocket 2.3 04:31:31 10° NNW 04:37:12 77° ENE 04:42:49 10° SSE
Cosmos 1814 Rocket 3.9 04:34:05 22° SSW 04:37:24 77° WNW 04:42:37 10° NNE
Cosmos 1842 3.3 04:36:28 27° SSW 04:38:24 59° W 04:42:19 10° N
Cosmos 1726 Rocket 4.2 04:35:25 10° NNW 04:39:19 34° W 04:40:47 26° SW
Cosmos 292 Rocket 4.2 04:36:09 12° S 04:40:29 64° ESE 04:45:16 10° NNE
ADEOS II 2.1 04:36:24 10° N 04:41:37 66° WNW 04:45:43 17° SSW
Cosmos 1707 4.5 04:38:33 10° SSE 04:42:01 32° E 04:45:30 10° NNE
Cosmos 2298 Rocket 4.0 04:37:10 10° NNW 04:42:27 66° WSW 04:47:41 10° S
Cosmos 1953 2.9 04:38:41 10° N 04:42:44 61° E 04:46:45 10° SSE
CZ-2D R/B 4.4 04:40:03 10° N 04:43:35 29° WNW 04:45:00 23° WSW
USA 267 4.2 04:39:22 10° E 04:45:37 50° NNE 04:51:52 10° NW
ADEOS 4.3 04:43:01 10° N 04:47:45 36° WNW 04:50:44 20° WSW
Cosmos 724 4.3 04:44:34 21° SW 04:48:31 65° NW 04:54:18 10° NNE
PSLV R/B 3.7 04:44:38 10° NNE 04:48:53 74° ESE 04:53:04 10° S
USA 238 DEB 3.7 04:43:52 16° SSW 04:49:29 87° ESE 04:56:29 10° NE
USA 238 3.7 04:43:57 16° SSW 04:49:35 87° SE 04:56:36 10° NE
Resurs 1-4 Rocket 4.0 04:49:41 10° NNW 04:52:08 13° WNW 04:54:13 11° W
Cosmos 1805 3.8 04:50:39 10° NNW 04:54:14 36° W 04:57:02 15° SSW
Cosmos 1812 Rocket 3.9 04:50:19 10° N 04:54:48 70° E 04:59:14 10° SSE
Cosmos 2058 Rocket 3.8 04:51:23 10° NNW 04:55:22 33° W 04:58:41 14° SSW
Meteor 2-11 Rocket 4.4 04:51:22 10° SSW 04:57:31 73° W 05:03:41 10° N
Cosmos 1378 3.4 04:54:08 10° S 04:57:51 71° E 05:01:36 10° NNE
Lacrosse 5 rocket 3.2 04:57:16 11° WNW 05:00:23 21° NNW 05:03:33 10° NNE
Cosmos 1602 Rocket 3.4 04:56:17 10° SSW 05:00:36 78° W 05:04:57 10° N
Cosmos 44 3.5 04:57:26 10° NW 05:02:36 61° WSW 05:07:53 10° SSE
Cosmos 1758 3.5 05:03:22 10° NNW 05:07:12 48° W 05:11:02 10° SSW
Cosmos 841 Rocket 3.7 05:05:16 12° SW 05:09:54 54° WNW 05:15:01 10° NNE
Cosmos 2228 4.4 05:08:38 10° NW 05:11:46 20° W 05:14:16 13° SW
BREEZE-M R/B 3.4 05:09:00 15° WSW 05:11:55 73° NNW 05:18:59 10° ENE
Cosmos 1626 Rocket 3.8 05:09:49 10° SSW 05:14:00 49° WNW 05:18:12 10° N
Meteor 1-28 Rocket 3.4 05:17:21 10° SSE 05:21:03 77° ENE 05:24:50 10° N
Meteor 2-5 Rocket 4.5 05:17:25 10° S 05:22:47 55° E 05:28:14 10° NNE
Cosmos 44 Rocket 3.5 05:17:50 10° NW 05:22:53 58° WSW 05:27:58 10° SSE
SJ 16-02 1.3 05:18:53 10° NNW 05:23:18 76° WSW 05:27:41 10° SSE
CZ-4B R/B 3.1 05:21:29 10° N 05:25:43 58° WNW 05:29:42 10° SSW
NOSS 3-2 (C) 3.8 05:20:46 10° SSW 05:26:37 69° ESE 05:33:07 10° NE
Meteor PRIRODA 3.8 05:26:38 10° NNE 05:30:19 77° E 05:34:02 10° S
Cosmos 540 Rocket 3.6 05:28:21 10° SW 05:33:23 58° WNW 05:38:30 10° NNE
Cosmos 1553 Rocket 4.3 05:28:22 10° S 05:34:46 77° E 05:41:11 10° N
Cosmos 1733 4.3 05:36:03 10° NW 05:39:13 24° W 05:42:23 10° SW
IDEFIX/ARIANE 42P 3.6 05:36:33 10° NNE 05:41:37 50° E 05:46:41 10° S
ATLAS 3B R/B 3.1 05:35:19 10° SW 05:42:20 55° NW 05:49:06 10° NNE
